Open Text Return on Investment 2010-2023 | OTEX

Current and historical return on investment (ROI) values for Open Text (OTEX) over the last 10 years.
Open Text ROI - Return on Investment Historical Data
Date TTM Net Income LT Investments & Debt Return on Investment
2023-12-31 $0.65B $12.51B 5.18%
2023-09-30 $0.58B $12.57B 4.95%
2023-06-30 $0.52B $12.58B 4.84%
2023-03-31 $0.53B $12.69B 5.57%
2022-12-31 $0.60B $9.32B 7.10%
2022-09-30 $0.61B $8.06B 7.40%
2022-06-30 $0.65B $8.24B 7.92%
2022-03-31 $0.68B $8.27B 8.48%
2021-12-31 $0.70B $8.34B 8.91%
2021-09-30 $0.74B $7.79B 9.67%
2021-06-30 $0.74B $7.68B 9.70%
2021-03-31 $0.66B $7.61B 8.66%
2020-12-31 $0.60B $7.59B 7.92%
2020-09-30 $0.55B $7.65B 7.52%
2020-06-30 $0.50B $7.59B 7.13%
2020-03-31 $0.57B $7.58B 8.40%
2019-12-31 $0.61B $6.60B 9.40%
2019-09-30 $0.60B $6.51B 9.30%
2019-06-30 $0.57B $6.49B 8.84%
2019-03-31 $0.56B $6.45B 8.75%
2018-12-31 $0.53B $6.39B 8.35%
2018-09-30 $0.52B $6.34B 8.37%
2018-06-30 $0.51B $6.33B 8.32%
2018-03-31 $0.46B $6.08B 7.74%
2017-12-31 $0.43B $6.02B 7.17%
2017-09-30 $0.37B $5.95B 6.19%
2017-06-30 $0.35B $5.92B 6.20%
2017-03-31 $0.34B $5.89B 6.49%
2016-12-31 $0.36B $5.88B 7.85%
2016-09-30 $0.37B $5.02B 9.12%
2016-06-30 $0.37B $4.12B 10.21%
2016-03-31 $0.36B $3.48B 10.47%
2015-12-31 $0.32B $3.43B 9.50%
2015-09-30 $0.32B $3.39B 9.85%
2015-06-30 $0.35B $3.38B 11.05%
2015-03-31 $0.38B $3.36B 12.31%
2014-12-31 $0.39B $2.99B 13.35%
2014-09-30 $0.35B $2.94B 13.32%
2014-06-30 $0.30B $2.90B 12.68%
2014-03-31 $0.24B $2.84B 11.46%
2013-12-31 $0.22B $1.90B 11.62%
2013-09-30 $0.21B $1.86B 11.39%
2013-06-30 $0.20B $1.85B 10.89%
2013-03-31 $0.19B $1.82B 10.56%
2012-12-31 $0.17B $1.81B 9.89%
2012-09-30 $0.16B $1.76B 9.36%
2012-06-30 $0.15B $1.73B 9.14%
2012-03-31 $0.14B $1.74B 9.10%
2011-12-31 $0.14B $1.70B 9.97%
2011-09-30 $0.14B $1.35B 10.93%
2011-06-30 $0.15B $1.32B 11.87%
2011-03-31 $0.13B $1.29B 10.36%
2010-12-31 $0.13B $1.24B 11.00%
2010-09-30 $0.12B $1.21B 10.34%
2010-06-30 $0.11B $1.17B 9.46%
2010-03-31 $0.14B $1.15B 12.47%
2009-12-31 $0.13B $1.16B 12.21%
Sector Industry Market Cap Revenue
Computer and Technology Computer Software $9.788B $4.485B
Open Text Corporation is engaged in development of innovative intranet, extranet and e-Business applications. Since creating one of the first search engines to index the World Wide Web, the company has remained at the forefront of Internet-based technologies. Open Text solutions allow individuals, teams, organizations, and global trading communities to collaborate on projects, share ideas and accelerate innovation to the fastest possible speed. Open Text Corporation is headquartered in Waterloo, Canada.
Stock Name Country Market Cap PE Ratio
Microsoft (MSFT) United States $3179.707B 38.69
Oracle (ORCL) United States $338.725B 27.57
Salesforce (CRM) United States $290.176B 48.41
Adobe (ADBE) United States $216.957B 36.28
Intuit (INTU) United States $175.759B 58.94
Synopsys (SNPS) United States $85.700B 61.82
Cadence Design Systems (CDNS) United States $84.421B 76.95
Dassault Systemes SA (DASTY) France $57.365B 37.60
Autodesk (ADSK) United States $51.563B 50.75
ANSYS (ANSS) United States $29.691B 50.09
MicroStrategy (MSTR) United States $26.331B 52.46
PTC (PTC) United States $21.791B 64.18
SS&C Technologies Holdings (SSNC) United States $15.208B 14.97
Manhattan Associates (MANH) United States $14.755B 84.99
Descartes Systems Group (DSGX) Canada $7.664B 67.20
Trend Micro (TMICY) Japan $7.320B 64.95
Pegasystems (PEGA) United States $5.238B 71.76
CommVault Systems (CVLT) United States $4.287B 76.50
Blackbaud (BLKB) United States $4.063B 36.35
ACI Worldwide (ACIW) United States $3.496B 17.95
Progress Software (PRGS) United States $2.267B 14.19
Verint Systems (VRNT) United States $1.945B 17.95
BlackBerry (BB) Canada $1.880B 0.00
Sapiens (SPNS) Israel $1.747B 24.75
PROS Holdings (PRO) United States $1.716B 0.00
Simulations Plus (SLP) United States $0.956B 70.37
Magic Software Enterprises (MGIC) Israel $0.576B 11.85
Rand Worldwide (RWWI) United States $0.573B 0.00
American Software (AMSWA) United States $0.397B 33.19
Canaan (CAN) China $0.294B 0.00
OptimizeRx (OPRX) United States $0.200B 0.00
Rigetti Computing (RGTI) United States $0.199B 0.00
Icad Inc (ICAD) United States $0.045B 0.00
NetSol Technologies (NTWK) United States $0.031B 0.00
Neonode (NEON) Sweden $0.023B 0.00
Smith Micro Software (SMSI) United States $0.023B 0.00
Hanryu Holdings (HRYU) South Korea $0.021B 0.00
Wetouch Technology (WETH) $0.019B 0.00
GSE Systems (GVP) United States $0.010B 0.00
SAP SE (SAP) Germany $0.000B 48.99